Overview Statistics Trail Chart Weather Telemetry Raw packets
 

This is the latest recevied weather packets stored in our database for station/object N1YZ. If no packets are shown the sender has not sent any weather packets the latest 10 day(s).

<< 27 28 29 30 31 32 33 >>
Time Temp. Humidity Pressure Rain* Wind** Luminosity Snow
1788473778 33.33° C 58% 1033.7 hPa 0 mm - 48 W/m² -
1788473476 33.33° C 58% 1033.5 hPa 0 mm - 52 W/m² -
1788473175 33.89° C 57% 1033.5 hPa 0 mm - 58 W/m² -
1788472875 33.89° C 55% 1033.3 hPa 0 mm - 61 W/m² -
1788472574 33.89° C 54% 1033.4 hPa 0 mm - 61 W/m² -
1788472269 33.89° C 54% 1033.2 hPa 0 mm - 64 W/m² -
1788471968 33.89° C 58% 1033.2 hPa 0 mm - 72 W/m² -
1788471663 33.89° C 57% 1033.2 hPa 0 mm - 79 W/m² -
1788471358 33.89° C 56% 1033.3 hPa 0 mm - 76 W/m² -
1788471054 34.44° C 57% 1033.3 hPa 0 mm - 67 W/m² -
1788470750 34.44° C 56% 1033.3 hPa 0 mm - 59 W/m² -
1788470445 34.44° C 54% 1033.3 hPa 0 mm - 57 W/m² -
1788470140 34.44° C 54% 1033.3 hPa 0 mm - 57 W/m² -
1788469836 34.44° C 54% 1033.4 hPa 0 mm - 62 W/m² -
1788469531 34.44° C 57% 1033.4 hPa 0 mm - 60 W/m² -
1788469227 34.44° C 54% 1033.6 hPa 0 mm - 74 W/m² -
1788468920 34.44° C 56% 1033.6 hPa 0 mm - 92 W/m² -
1788468615 34.44° C 57% 1033.7 hPa 0 mm - 111 W/m² -
1788468311 34.44° C 56% 1033.5 hPa 0 mm - 87 W/m² -
1788468006 34.44° C 56% 1033.4 hPa 0 mm - 100 W/m² -
1788467701 34.44° C 57% 1033.7 hPa 0 mm - 100 W/m² -
1788467400 34.44° C 55% 1033.7 hPa 0 mm - 83 W/m² -
1788467097 33.89° C 57% 1033.6 hPa 0 mm - 464 W/m² -
1788466791 33.89° C 58% 1034 hPa 0 mm - 64 W/m² -
1788466487 33.89° C 59% 1033.8 hPa 0 mm - 115 W/m² -

* Rain latest hour (hover to see other rain measurements)
** Current wind speed in m/s (hover to see current wind gust speed)